Meteo Giornale » Osservazioni meteo Austria » Salisburgo

ore: 19:50 - Osservazioni Meteo Salisburgo
Lat. 47° 48' N Lon. 13° 0' E Alt. 430 metri s.l.m.

sereno Europe/Vienna

11 °C

Sereno

Temp. 24 Ore

3 °C

14 °C

Sud/Sud-Est

20.3 Km/h

Dew point -1 °C

Umidità 43 %

Visibilità  10 Km

Il sole sorge alle ore 07:10

Il sole tramonta alle ore 17:33

Data e Ora Cielo e Fenomeni T °C DP °C Um. % Pres. hPa Vis. km Vento km/h
Oggi h: 19:50 sereno Sereno 11 -1 43 1016 10 S/SE 20.3
Oggi h: 19:20 molto_nuvoloso Molto Nuvoloso 10 -0 49 1016 10 S 16.7
Oggi h: 18:50 molto_nuvoloso Molto Nuvoloso 11 -1 43 1017 10 SE 14.8
Oggi h: 18:20 sereno Sereno 11 -2 40 1017 10 S/SE 18.5
Oggi h: 17:50 molto_nuvoloso Molto Nuvoloso 12 -2 37 1017 10 SE 20.3
Oggi h: 16:50 sereno Sereno 13 -0 40 1018 10 S/SE 11.1
Oggi h: 16:20 sereno Sereno 14 1 41 1018 10 S/SE 9.3
Oggi h: 15:50 sereno Sereno 14 1 41 1019 10 N 1.8
Oggi h: 15:20 sereno Sereno 14 1 41 1019 10 O/NO 7.4
Oggi h: 14:50 sereno Sereno 14 1 41 1019 10 O/NO 7.4
Oggi h: 14:20 sereno Sereno 14 1 41 1019 10 N 5.5
Oggi h: 13:50 molto_nuvoloso Molto Nuvoloso 14 -1 35 1019 10 S 7.4
Oggi h: 13:20 molto_nuvoloso Molto Nuvoloso 14 -2 32 1019 10 S 9.3
Oggi h: 12:50 molto_nuvoloso Molto Nuvoloso 14 -2 32 1019 10 S/SE 13
Oggi h: 12:20 sereno Sereno 12 -2 37 1019 10 S/SE 20.3
Oggi h: 11:50 sereno Sereno 11 -3 37 1020 10 SE 24
Oggi h: 11:20 sereno Sereno 10 -2 42 1020 10 S/SE 18.5
Oggi h: 10:50 sereno Sereno 10 -3 39 1021 10 S/SE 20.3
Oggi h: 10:20 sereno Sereno 9 -3 42 1021 10 S/SE 22.2
Oggi h: 09:20 sereno Sereno 8 -3 45 1021 10 SE 24
Oggi h: 08:50 sereno Sereno 7 -3 48 1021 10 S/SE 25.9
Oggi h: 08:20 sereno Sereno 6 -3 52 1021 10 S/SE 25.9
Oggi h: 07:50 sereno Sereno 5 -3 56 1022 10 S/SE 25.9
Oggi h: 07:20 sereno Sereno 5 -3 56 1021 10 S/SE 27.8
Oggi h: 06:50 sereno Sereno 5 -3 56 1021 10 S/SE 27.8
Oggi h: 06:20 sereno Sereno 5 -3 56 1021 10 S/SE 27.8
Oggi h: 05:50 sereno Sereno 5 -3 56 1022 10 S/SE 27.8
Oggi h: 05:20 nuvoloso Nuvoloso 5 -3 56 1022 10 S/SE 25.9
Oggi h: 04:50 nuvoloso Nuvoloso 5 -2 60 1022 10 S/SE 29.6
Oggi h: 04:20 nuvoloso Nuvoloso 5 -2 60 1022 10 S/SE 27.8
Oggi h: 03:50 nuvoloso Nuvoloso 5 -2 60 1022 10 S/SE 24
Oggi h: 03:20 molto_nuvoloso Molto Nuvoloso 5 -2 60 1023 10 S/SE 24
Oggi h: 02:50 molto_nuvoloso Molto Nuvoloso 5 -2 60 1023 10 S/SE 24
Oggi h: 02:20 nuvoloso Nuvoloso 5 -1 65 1023 10 S/SE 24
Oggi h: 01:50 molto_nuvoloso Molto Nuvoloso 5 -1 65 1023 10 SE 24
Oggi h: 01:20 molto_nuvoloso Molto Nuvoloso 5 -1 65 1023 10 S/SE 25.9
Oggi h: 00:50 nuvoloso Nuvoloso 5 -1 65 1023 10 S/SE 24
Oggi h: 00:20 nuvoloso Nuvoloso 5 -0 70 1023 10 S/SE 25.9
Ieri h: 23:50 nuvoloso Nuvoloso 5 -0 70 1023 10 SE 24
Ieri h: 23:20 sereno Sereno 4 -0 75 1023 10 S/SE 22.2
Ieri h: 22:50 sereno Sereno 5 0 70 1023 10 S/SE 24
Ieri h: 22:20 sereno Sereno 5 0 70 1023 10 SE 22.2
Ieri h: 21:50 sereno Sereno 5 -0 70 1023 10 SE 20.3
Ieri h: 21:20 sereno Sereno 5 -1 65 1024 10 S/SE 16.7
Ieri h: 20:50 sereno Sereno 5 -1 65 1024 10 S/SE 16.7
Ieri h: 20:20 sereno Sereno 3 -1 74 1023 10 S/SE 14.8
Ieri h: 19:50 sereno Sereno 3 -1 74 1024 10 S 9.3